Date String (YYYY-MM-DD hh:mm:ss) UTC,Instrument flags,Ambient pressure (hPa),Sample flow (lpm),Bypass flow (lpm),Sample temperature (°C),Ambient temperature (°C),ASC tube jacket temperature (°C),LED temperature (°C),Box temperature (°C),Sample RH (%),Span deviation,Mass concentration (μg/m³),Mass concentration (μg/m³),Mass concentration (μg/m³)
DateTimeUTC,F1_M11,P_M11,Q1_M11,Q2_M11,T1_M11,T2_M11,T3_M11,T4_M11,T5_M11,U1_M11,ZSPAN_M11,X0_M11,X2_M11,X1_M11
2023-01-01 06:00:00,,0816.8,5.01,0.00,22.1,21.0,00.0,31.0,24.0,17.5,0000.0,0004.94,0002.56,0002.35
2023-01-01 06:01:00,,0816.9,4.99,0.00,22.2,21.0,00.0,31.0,24.0,17.4,0000.0,0005.81,0002.52,0002.31
2023-01-01 06:02:00,,0816.9,4.99,0.00,22.2,21.0,00.0,31.0,24.0,17.4,0000.0,0005.08,0002.45,0002.26
2023-01-01 06:03:00,,0816.9,4.97,0.00,22.2,21.0,00.0,31.0,24.0,17.4,0000.0,0005.13,0002.45,0002.22
2023-01-01 06:04:00,,0816.8,5.06,0.00,22.2,21.0,00.0,31.0,24.0,17.4,0000.0,0005.07,0002.38,0002.18
2023-01-01 06:05:00,,0816.9,4.98,0.00,22.2,21.0,00.0,31.0,24.0,17.4,0000.0,0005.04,0002.39,0002.20
2023-01-01 06:06:00,,0816.8,4.97,0.00,22.2,21.0,00.0,31.0,24.1,17.4,0000.0,0005.14,0002.47,0002.27
2023-01-01 06:07:00,,0816.9,4.99,0.00,22.2,21.0,00.0,31.0,24.1,17.4,0000.0,0005.24,0002.56,0002.35
2023-01-01 06:08:00,,0816.8,5.01,0.00,22.2,21.0,00.0,31.0,24.1,17.4,0000.0,0006.45,0002.67,0002.45
2023-01-01 06:09:00,,0816.9,5.01,0.00,22.2,21.0,00.0,31.0,24.1,17.6,0000.0,0006.85,0002.88,0002.60
2023-01-01 06:10:00,,0816.8,5.03,0.00,22.2,21.0,00.0,31.0,24.0,17.7,0000.0,0006.84,0003.14,0002.82
2023-01-01 06:11:00,,0817.2,4.99,0.00,22.2,21.0,00.0,31.0,24.0,17.7,0000.0,0006.71,0003.40,0003.10
2023-01-01 06:12:00,,0817.0,4.97,0.00,22.2,21.0,00.0,31.0,24.0,17.8,0000.0,0006.54,0003.66,0003.31
2023-01-01 06:13:00,,0817.0,4.96,0.00,22.2,21.0,00.0,31.0,24.0,17.8,0000.0,0007.46,0003.90,0003.50
2023-01-01 06:14:00,,0817.0,5.05,0.00,22.2,21.1,00.0,31.0,24.1,17.8,0000.0,0008.13,0004.17,0003.72
2023-01-01 06:15:00,,0817.0,5.02,0.00,22.3,21.8,00.0,31.0,24.3,17.7,0000.0,0008.91,0004.44,0003.94
2023-01-01 06:16:00,,0816.9,4.99,0.00,22.4,22.6,00.0,31.0,24.5,17.6,0000.0,0009.70,0004.74,0004.15
2023-01-01 06:17:00,,0817.1,4.99,0.00,22.5,22.6,00.0,31.1,24.5,17.5,0000.0,0010.12,0005.00,0004.34
2023-01-01 06:18:00,,0817.4,4.96,0.00,22.5,22.2,00.0,31.1,24.5,17.5,0000.0,0010.55,0005.28,0004.56
2023-01-01 06:19:00,,0816.8,4.98,0.00,22.5,21.9,00.0,31.2,24.4,17.5,0000.0,0010.47,0005.57,0004.76
2023-01-01 06:20:00,,0816.9,4.99,0.00,22.5,21.7,00.0,31.2,24.3,17.5,0000.0,0011.04,0005.78,0004.92
2023-01-01 06:21:00,,0817.2,5.04,0.00,22.5,21.5,00.0,31.2,24.3,17.5,0000.0,0011.49,0005.96,0005.03
2023-01-01 06:22:00,,0817.3,5.01,0.00,22.4,21.4,00.0,31.2,24.3,17.5,0000.0,0011.67,0006.03,0005.10
2023-01-01 06:23:00,,0817.1,4.97,0.00,22.4,21.3,00.0,31.2,24.2,17.5,0000.0,0012.04,0006.13,0005.18
2023-01-01 06:24:00,,0817.2,5.03,0.00,22.4,21.2,00.0,31.2,24.2,17.5,0000.0,0012.03,0006.24,0005.28
2023-01-01 06:25:00,,0817.0,5.04,0.00,22.4,21.2,00.0,31.2,24.2,17.5,0000.0,0012.17,0006.36,0005.38
2023-01-01 06:26:00,,0817.3,4.99,0.00,22.4,21.1,00.0,31.2,24.2,17.5,0000.0,0012.22,0006.56,0005.52
2023-01-01 06:27:00,,0817.1,4.97,0.00,22.4,21.1,00.0,31.2,24.2,17.5,0000.0,0011.78,0006.71,0005.68
2023-01-01 06:28:00,,0816.8,5.09,0.00,22.4,21.1,00.0,31.2,24.2,17.4,0001.7,0012.11,0006.84,0005.83
2023-01-01 06:29:00,,0816.8,5.02,0.00,22.4,21.1,00.0,31.2,24.2,17.4,0003.0,0012.34,0006.95,0005.97
2023-01-01 06:30:00,,0817.1,4.99,0.00,22.4,21.0,00.0,31.2,24.2,17.4,0002.7,0012.38,0007.05,0006.09
2023-01-01 06:31:00,,0817.2,4.98,0.00,22.4,21.0,00.0,31.2,24.2,17.3,0002.1,0012.21,0007.09,0006.18
2023-01-01 06:32:00,,0817.1,5.03,0.00,22.4,21.0,00.0,31.2,24.1,17.3,0002.4,0012.01,0007.05,0006.22
2023-01-01 06:33:00,,0816.9,4.99,0.00,22.3,21.0,00.0,31.2,24.1,17.3,0002.7,0012.16,0007.08,0006.27
2023-01-01 06:34:00,,0817.0,4.99,0.00,22.3,20.9,00.0,31.2,24.1,17.2,0002.7,0011.72,0006.99,0006.28
2023-01-01 06:35:00,,0816.9,5.05,0.00,22.3,20.9,00.0,31.2,24.1,17.1,0002.6,0011.47,0006.94,0006.28
2023-01-01 06:36:00,,0816.9,4.97,0.00,22.3,20.8,00.0,31.2,24.0,17.1,0002.2,0010.99,0006.86,0006.24
2023-01-01 06:37:00,,0816.9,4.98,0.00,22.3,20.8,00.0,31.2,24.0,17.1,0001.6,0010.65,0006.65,0006.13
2023-01-01 06:38:00,,0816.9,5.04,0.00,22.2,20.7,00.0,31.2,23.9,17.1,0001.4,0010.57,0006.52,0006.04
2023-01-01 06:39:00,,0817.3,5.03,0.00,22.2,20.7,00.0,31.2,23.9,17.0,0001.1,0010.29,0006.41,0005.95
2023-01-01 06:40:00,,0816.8,5.00,0.00,22.2,20.6,00.0,31.1,23.9,17.0,0000.8,0010.16,0006.31,0005.87
2023-01-01 06:41:00,,0816.8,4.97,0.00,22.2,20.6,00.0,31.1,23.8,17.0,0000.7,0010.29,0006.23,0005.82
2023-01-01 06:42:00,,0816.9,5.00,0.00,22.1,20.7,00.0,31.1,23.9,17.1,0000.6,0010.62,0006.22,0005.81
2023-01-01 06:43:00,,0816.9,5.02,0.00,22.2,21.5,00.0,31.0,24.1,17.0,0000.7,0010.40,0006.24,0005.84
2023-01-01 06:44:00,,0816.9,5.01,0.00,22.3,22.6,00.0,31.0,24.4,16.9,0000.6,0010.42,0006.24,0005.87
2023-01-01 06:45:00,,0816.9,4.98,0.00,22.4,22.9,00.0,31.1,24.5,16.8,0000.4,0010.34,0006.22,0005.88
2023-01-01 06:46:00,,0816.9,4.96,0.00,22.5,22.5,00.0,31.2,24.5,16.8,0000.0,0010.35,0006.23,0005.89
2023-01-01 06:47:00,,0816.9,5.07,0.00,22.5,22.1,00.0,31.2,24.4,16.8,0000.0,0010.30,0006.21,0005.89
2023-01-01 06:48:00,,0816.9,5.02,0.00,22.5,21.9,00.0,31.2,24.3,16.8,0001.2,0010.31,0006.21,0005.90
2023-01-01 06:49:00,,0816.9,4.98,0.00,22.5,21.7,00.0,31.2,24.3,16.8,0001.5,0010.14,0006.20,0005.93
2023-01-01 06:50:00,,0816.9,4.98,0.00,22.5,21.6,00.0,31.3,24.3,16.8,0000.9,0009.93,0006.16,0005.92
2023-01-01 06:51:00,,0816.8,4.98,0.00,22.5,21.4,00.0,31.3,24.3,16.9,0000.6,0009.64,0006.12,0005.90
2023-01-01 06:52:00,,0816.8,4.99,0.00,22.5,21.4,00.0,31.3,24.3,16.8,0000.7,0009.36,0006.12,0005.91
2023-01-01 06:53:00,,0816.8,5.01,0.00,22.5,21.4,00.0,31.3,24.3,16.6,0000.0,0009.05,0006.16,0005.92
2023-01-01 06:54:00,,0816.8,5.02,0.00,22.5,21.3,00.0,31.3,24.3,16.5,0000.0,0009.12,0006.16,0005.91
2023-01-01 06:55:00,,0816.9,4.98,0.00,22.5,21.2,00.0,31.3,24.3,16.6,0000.0,0008.91,0006.15,0005.88
2023-01-01 06:56:00,,0817.2,4.99,0.00,22.5,21.2,00.0,31.3,24.3,16.8,0000.0,0009.12,0006.21,0005.89
2023-01-01 06:57:00,,0817.0,4.98,0.00,22.4,21.2,00.0,31.3,24.2,17.0,0000.0,0009.74,0006.26,0005.89
2023-01-01 06:58:00,,0816.9,5.03,0.00,22.4,21.2,00.0,31.3,24.2,17.1,0000.0,0010.41,0006.34,0005.90
2023-01-01 06:59:00,,0816.9,4.99,0.00,22.4,21.1,00.0,31.3,24.2,17.1,0000.0,0010.79,0006.46,0005.94
